DEVICE NETWORK
Gateway Status
13 ESP · realtime ~1s · history 60s
Weather
WS-MOD-01
ONLINE
Actuator
ACT-MOD-01
OFFLINE
Mainboard L3
MB-L3-01
ONLINE
Mainboard L5
MB-L5-01
ONLINE
Remote AC
AC-REMOTE-01
ONLINE
PZEM L3-01
PWR-L3-01
OFFLINE
PZEM L3-02
PWR-L3-02
OFFLINE
PZEM L3-03
PWR-L3-03
OFFLINE
PZEM L3-04
PWR-L3-04
OFFLINE
PZEM L5-01
PWR-L5-01
ONLINE
PZEM L5-02
PWR-L5-02
ONLINE
PZEM L5-03
PWR-L5-03
OFFLINE
PZEM L5-04
PWR-L5-04
OFFLINE
REPORT FILTER
DATABASE HISTORY
Periode & Sensor
REPORT RESULT
Data Sensor
04/08/2026 — 02/09/2026
EXPORT CSV
| NO | TANGGAL | WAKTU | DEVICE | CHANNEL | SENSOR | VALUE | UNIT |
|---|---|---|---|---|---|---|---|
| 12701 | 02/09/2026 | 14:54:13 | MB-L5-01Mainboard Lantai 5 | L5-HFT-02 | Heat Flow Temperature 2 | 30.30 | °C |
| 12702 | 02/09/2026 | 14:54:13 | MB-L5-01Mainboard Lantai 5 | L5-SHT-01-RH | SHT20 1 Humidity | 48.40 | %RH |
| 12703 | 02/09/2026 | 14:54:13 | MB-L3-01Mainboard Lantai 3 | L3-HFT-02 | Heat Flow Temperature 2 | 29.20 | °C |
| 12704 | 02/09/2026 | 14:54:13 | MB-L3-01Mainboard Lantai 3 | L3-SHT-01-T | SHT20 1 Temperature | 32.00 | °C |
| 12705 | 02/09/2026 | 14:54:13 | MB-L5-01Mainboard Lantai 5 | L5-HFT-01 | Heat Flow Temperature 1 | 30.40 | °C |
| 12706 | 02/09/2026 | 14:54:13 | MB-L5-01Mainboard Lantai 5 | L5-LUX-01 | Illuminance / LUX 1 | 276.90 | lux |
| 12707 | 02/09/2026 | 14:54:13 | MB-L5-01Mainboard Lantai 5 | L5-LUX-06 | Illuminance / LUX 6 | 326.90 | lux |
| 12708 | 02/09/2026 | 14:54:13 | MB-L5-01Mainboard Lantai 5 | L5-ST-02 | Surface Temperature 2 | 30.50 | °C |
| 12709 | 02/09/2026 | 14:54:13 | MB-L3-01Mainboard Lantai 3 | L3-LUX-02 | Illuminance / LUX 2 | 91.40 | lux |
| 12710 | 02/09/2026 | 14:54:13 | MB-L5-01Mainboard Lantai 5 | L5-LUX-05 | Illuminance / LUX 5 | 576.10 | lux |
| 12711 | 02/09/2026 | 14:54:13 | MB-L3-01Mainboard Lantai 3 | L3-SHT-01-RH | SHT20 1 Humidity | 48.30 | %RH |
| 12712 | 02/09/2026 | 14:54:13 | MB-L3-01Mainboard Lantai 3 | L3-AI-03 | Analog Input 3 | 3.12 | V |
| 12713 | 02/09/2026 | 14:54:13 | MB-L5-01Mainboard Lantai 5 | L5-LUX-02 | Illuminance / LUX 2 | 181.70 | lux |
| 12714 | 02/09/2026 | 14:54:13 | MB-L5-01Mainboard Lantai 5 | L5-ST-01 | Surface Temperature 1 | 30.30 | °C |
| 12715 | 02/09/2026 | 14:54:13 | MB-L3-01Mainboard Lantai 3 | L3-SHT-02-RH | SHT20 2 Humidity | 48.50 | %RH |
| 12716 | 02/09/2026 | 14:54:13 | MB-L3-01Mainboard Lantai 3 | L3-BGT-01 | Black Globe Temperature 1 | 29.80 | °C |
| 12717 | 02/09/2026 | 14:54:13 | MB-L5-01Mainboard Lantai 5 | L5-RAD-02 | Radiation 2 | 2.00 | W/m² |
| 12718 | 02/09/2026 | 14:54:13 | MB-L3-01Mainboard Lantai 3 | L3-LUX-01 | Illuminance / LUX 1 | 50.40 | lux |
| 12719 | 02/09/2026 | 14:54:13 | MB-L3-01Mainboard Lantai 3 | L3-RAD-02 | Radiation 2 | 2.00 | W/m² |
| 12720 | 02/09/2026 | 14:54:11 | MB-L3-01Mainboard Lantai 3 | L3-SHT-02-T | SHT20 2 Temperature | 32.10 | °C |
| 12721 | 02/09/2026 | 14:54:11 | MB-L5-01Mainboard Lantai 5 | L5-AI-02 | Analog Input 2 | 3.05 | V |
| 12722 | 02/09/2026 | 14:54:11 | MB-L3-01Mainboard Lantai 3 | L3-BGT-03 | Black Globe Temperature 3 | 29.40 | °C |
| 12723 | 02/09/2026 | 14:54:11 | MB-L5-01Mainboard Lantai 5 | L5-AI-01 | Analog Input 1 | 3.05 | V |
| 12724 | 02/09/2026 | 14:54:11 | MB-L3-01Mainboard Lantai 3 | L3-ST-02 | Surface Temperature 2 | 30.20 | °C |
| 12725 | 02/09/2026 | 14:54:11 | MB-L3-01Mainboard Lantai 3 | L3-AI-06 | Analog Input 6 | 3.12 | V |
| 12726 | 02/09/2026 | 14:54:11 | MB-L3-01Mainboard Lantai 3 | L3-LUX-06 | Illuminance / LUX 6 | 50.90 | lux |
| 12727 | 02/09/2026 | 14:54:11 | MB-L3-01Mainboard Lantai 3 | L3-AI-01 | Analog Input 1 | 3.12 | V |
| 12728 | 02/09/2026 | 14:54:11 | MB-L5-01Mainboard Lantai 5 | L5-BGT-03 | Black Globe Temperature 3 | 30.10 | °C |
| 12729 | 02/09/2026 | 14:54:11 | MB-L3-01Mainboard Lantai 3 | L3-HFT-01 | Heat Flow Temperature 1 | 29.70 | °C |
| 12730 | 02/09/2026 | 14:54:11 | MB-L5-01Mainboard Lantai 5 | L5-LUX-03 | Illuminance / LUX 3 | 214.90 | lux |
| 12731 | 02/09/2026 | 14:54:11 | MB-L5-01Mainboard Lantai 5 | L5-BGT-02 | Black Globe Temperature 2 | 29.90 | °C |
| 12732 | 02/09/2026 | 14:54:11 | MB-L5-01Mainboard Lantai 5 | L5-BGT-01 | Black Globe Temperature 1 | 29.80 | °C |
| 12733 | 02/09/2026 | 14:54:11 | MB-L3-01Mainboard Lantai 3 | L3-LUX-05 | Illuminance / LUX 5 | 95.90 | lux |
| 12734 | 02/09/2026 | 14:54:11 | MB-L3-01Mainboard Lantai 3 | L3-AI-02 | Analog Input 2 | 3.12 | V |
| 12735 | 02/09/2026 | 14:54:11 | MB-L3-01Mainboard Lantai 3 | L3-LUX-04 | Illuminance / LUX 4 | 158.00 | lux |
| 12736 | 02/09/2026 | 14:54:11 | MB-L5-01Mainboard Lantai 5 | L5-HFT-02 | Heat Flow Temperature 2 | 30.20 | °C |
| 12737 | 02/09/2026 | 14:54:11 | MB-L5-01Mainboard Lantai 5 | L5-SHT-01-RH | SHT20 1 Humidity | 48.40 | %RH |
| 12738 | 02/09/2026 | 14:54:11 | MB-L3-01Mainboard Lantai 3 | L3-HFT-02 | Heat Flow Temperature 2 | 29.20 | °C |
| 12739 | 02/09/2026 | 14:54:11 | MB-L3-01Mainboard Lantai 3 | L3-SHT-01-T | SHT20 1 Temperature | 32.20 | °C |
| 12740 | 02/09/2026 | 14:54:11 | MB-L5-01Mainboard Lantai 5 | L5-HFT-01 | Heat Flow Temperature 1 | 30.30 | °C |
| 12741 | 02/09/2026 | 14:54:11 | MB-L5-01Mainboard Lantai 5 | L5-LUX-01 | Illuminance / LUX 1 | 271.40 | lux |
| 12742 | 02/09/2026 | 14:54:11 | MB-L5-01Mainboard Lantai 5 | L5-LUX-06 | Illuminance / LUX 6 | 326.00 | lux |
| 12743 | 02/09/2026 | 14:54:11 | MB-L5-01Mainboard Lantai 5 | L5-ST-02 | Surface Temperature 2 | 30.50 | °C |
| 12744 | 02/09/2026 | 14:54:11 | MB-L3-01Mainboard Lantai 3 | L3-LUX-02 | Illuminance / LUX 2 | 96.90 | lux |
| 12745 | 02/09/2026 | 14:54:11 | MB-L5-01Mainboard Lantai 5 | L5-LUX-05 | Illuminance / LUX 5 | 625.60 | lux |
| 12746 | 02/09/2026 | 14:54:11 | MB-L3-01Mainboard Lantai 3 | L3-SHT-01-RH | SHT20 1 Humidity | 48.40 | %RH |
| 12747 | 02/09/2026 | 14:54:11 | MB-L3-01Mainboard Lantai 3 | L3-AI-03 | Analog Input 3 | 3.12 | V |
| 12748 | 02/09/2026 | 14:54:11 | MB-L5-01Mainboard Lantai 5 | L5-LUX-02 | Illuminance / LUX 2 | 195.10 | lux |
| 12749 | 02/09/2026 | 14:54:11 | MB-L5-01Mainboard Lantai 5 | L5-ST-01 | Surface Temperature 1 | 30.30 | °C |
| 12750 | 02/09/2026 | 14:54:11 | MB-L3-01Mainboard Lantai 3 | L3-SHT-02-RH | SHT20 2 Humidity | 48.40 | %RH |
| 12751 | 02/09/2026 | 14:54:11 | MB-L3-01Mainboard Lantai 3 | L3-BGT-01 | Black Globe Temperature 1 | 29.80 | °C |
| 12752 | 02/09/2026 | 14:54:11 | MB-L5-01Mainboard Lantai 5 | L5-RAD-02 | Radiation 2 | 2.00 | W/m² |
| 12753 | 02/09/2026 | 14:54:11 | MB-L3-01Mainboard Lantai 3 | L3-LUX-01 | Illuminance / LUX 1 | 59.00 | lux |
| 12754 | 02/09/2026 | 14:54:11 | MB-L3-01Mainboard Lantai 3 | L3-RAD-02 | Radiation 2 | 2.00 | W/m² |
| 12755 | 02/09/2026 | 14:54:11 | MB-L5-01Mainboard Lantai 5 | L5-AI-06 | Analog Input 6 | 3.05 | V |
| 12756 | 02/09/2026 | 14:54:11 | MB-L3-01Mainboard Lantai 3 | L3-LUX-03 | Illuminance / LUX 3 | 199.70 | lux |
| 12757 | 02/09/2026 | 14:54:11 | MB-L5-01Mainboard Lantai 5 | L5-SHT-02-RH | SHT20 2 Humidity | 48.20 | %RH |
| 12758 | 02/09/2026 | 14:54:11 | MB-L3-01Mainboard Lantai 3 | L3-AI-04 | Analog Input 4 | 3.12 | V |
| 12759 | 02/09/2026 | 14:54:11 | MB-L5-01Mainboard Lantai 5 | L5-LUX-04 | Illuminance / LUX 4 | 325.10 | lux |
| 12760 | 02/09/2026 | 14:54:11 | MB-L3-01Mainboard Lantai 3 | L3-BGT-02 | Black Globe Temperature 2 | 29.80 | °C |
| 12761 | 02/09/2026 | 14:54:11 | MB-L3-01Mainboard Lantai 3 | L3-RAD-01 | Radiation 1 | 2.00 | W/m² |
| 12762 | 02/09/2026 | 14:54:11 | MB-L5-01Mainboard Lantai 5 | L5-AI-05 | Analog Input 5 | 3.05 | V |
| 12763 | 02/09/2026 | 14:54:11 | MB-L5-01Mainboard Lantai 5 | L5-SHT-03-T | SHT20 3 Temperature | 32.20 | °C |
| 12764 | 02/09/2026 | 14:54:11 | MB-L5-01Mainboard Lantai 5 | L5-SHT-01-T | SHT20 1 Temperature | 32.40 | °C |
| 12765 | 02/09/2026 | 14:54:11 | MB-L3-01Mainboard Lantai 3 | L3-SHT-03-RH | SHT20 3 Humidity | 49.10 | %RH |
| 12766 | 02/09/2026 | 14:54:11 | MB-L5-01Mainboard Lantai 5 | L5-SHT-02-T | SHT20 2 Temperature | 32.20 | °C |
| 12767 | 02/09/2026 | 14:54:11 | MB-L5-01Mainboard Lantai 5 | L5-SHT-03-RH | SHT20 3 Humidity | 48.60 | %RH |
| 12768 | 02/09/2026 | 14:54:11 | MB-L5-01Mainboard Lantai 5 | L5-AI-04 | Analog Input 4 | 3.05 | V |
| 12769 | 02/09/2026 | 14:54:11 | MB-L3-01Mainboard Lantai 3 | L3-ST-01 | Surface Temperature 1 | 30.00 | °C |
| 12770 | 02/09/2026 | 14:54:11 | MB-L3-01Mainboard Lantai 3 | L3-AI-05 | Analog Input 5 | 3.12 | V |
| 12771 | 02/09/2026 | 14:54:11 | MB-L3-01Mainboard Lantai 3 | L3-SHT-03-T | SHT20 3 Temperature | 31.80 | °C |
| 12772 | 02/09/2026 | 14:54:11 | MB-L5-01Mainboard Lantai 5 | L5-RAD-01 | Radiation 1 | 2.00 | W/m² |
| 12773 | 02/09/2026 | 14:54:11 | MB-L5-01Mainboard Lantai 5 | L5-AI-03 | Analog Input 3 | 3.05 | V |
| 12774 | 02/09/2026 | 14:54:09 | MB-L3-01Mainboard Lantai 3 | L3-AI-01 | Analog Input 1 | 3.12 | V |
| 12775 | 02/09/2026 | 14:54:09 | MB-L5-01Mainboard Lantai 5 | L5-BGT-03 | Black Globe Temperature 3 | 30.00 | °C |
| 12776 | 02/09/2026 | 14:54:09 | MB-L3-01Mainboard Lantai 3 | L3-HFT-01 | Heat Flow Temperature 1 | 29.60 | °C |
| 12777 | 02/09/2026 | 14:54:09 | MB-L5-01Mainboard Lantai 5 | L5-LUX-03 | Illuminance / LUX 3 | 214.90 | lux |
| 12778 | 02/09/2026 | 14:54:09 | MB-L5-01Mainboard Lantai 5 | L5-BGT-02 | Black Globe Temperature 2 | 29.90 | °C |
| 12779 | 02/09/2026 | 14:54:09 | MB-L5-01Mainboard Lantai 5 | L5-BGT-01 | Black Globe Temperature 1 | 29.90 | °C |
| 12780 | 02/09/2026 | 14:54:09 | MB-L3-01Mainboard Lantai 3 | L3-LUX-05 | Illuminance / LUX 5 | 89.70 | lux |
| 12781 | 02/09/2026 | 14:54:09 | MB-L3-01Mainboard Lantai 3 | L3-AI-02 | Analog Input 2 | 3.12 | V |
| 12782 | 02/09/2026 | 14:54:09 | MB-L3-01Mainboard Lantai 3 | L3-LUX-04 | Illuminance / LUX 4 | 154.70 | lux |
| 12783 | 02/09/2026 | 14:54:09 | MB-L5-01Mainboard Lantai 5 | L5-HFT-02 | Heat Flow Temperature 2 | 30.20 | °C |
| 12784 | 02/09/2026 | 14:54:09 | MB-L5-01Mainboard Lantai 5 | L5-SHT-01-RH | SHT20 1 Humidity | 48.40 | %RH |
| 12785 | 02/09/2026 | 14:54:09 | MB-L3-01Mainboard Lantai 3 | L3-HFT-02 | Heat Flow Temperature 2 | 29.20 | °C |
| 12786 | 02/09/2026 | 14:54:09 | MB-L3-01Mainboard Lantai 3 | L3-SHT-01-T | SHT20 1 Temperature | 32.10 | °C |
| 12787 | 02/09/2026 | 14:54:09 | MB-L5-01Mainboard Lantai 5 | L5-HFT-01 | Heat Flow Temperature 1 | 30.30 | °C |
| 12788 | 02/09/2026 | 14:54:09 | MB-L5-01Mainboard Lantai 5 | L5-LUX-01 | Illuminance / LUX 1 | 261.20 | lux |
| 12789 | 02/09/2026 | 14:54:09 | MB-L5-01Mainboard Lantai 5 | L5-LUX-06 | Illuminance / LUX 6 | 297.00 | lux |
| 12790 | 02/09/2026 | 14:54:09 | MB-L5-01Mainboard Lantai 5 | L5-ST-02 | Surface Temperature 2 | 30.50 | °C |
| 12791 | 02/09/2026 | 14:54:09 | MB-L3-01Mainboard Lantai 3 | L3-LUX-02 | Illuminance / LUX 2 | 86.80 | lux |
| 12792 | 02/09/2026 | 14:54:09 | MB-L5-01Mainboard Lantai 5 | L5-LUX-05 | Illuminance / LUX 5 | 567.40 | lux |
| 12793 | 02/09/2026 | 14:54:09 | MB-L3-01Mainboard Lantai 3 | L3-SHT-01-RH | SHT20 1 Humidity | 48.50 | %RH |
| 12794 | 02/09/2026 | 14:54:09 | MB-L3-01Mainboard Lantai 3 | L3-AI-03 | Analog Input 3 | 3.12 | V |
| 12795 | 02/09/2026 | 14:54:09 | MB-L5-01Mainboard Lantai 5 | L5-LUX-02 | Illuminance / LUX 2 | 180.50 | lux |
| 12796 | 02/09/2026 | 14:54:09 | MB-L5-01Mainboard Lantai 5 | L5-ST-01 | Surface Temperature 1 | 30.40 | °C |
| 12797 | 02/09/2026 | 14:54:09 | MB-L3-01Mainboard Lantai 3 | L3-SHT-02-RH | SHT20 2 Humidity | 48.50 | %RH |
| 12798 | 02/09/2026 | 14:54:09 | MB-L3-01Mainboard Lantai 3 | L3-BGT-01 | Black Globe Temperature 1 | 29.80 | °C |
| 12799 | 02/09/2026 | 14:54:09 | MB-L5-01Mainboard Lantai 5 | L5-RAD-02 | Radiation 2 | 2.00 | W/m² |
| 12800 | 02/09/2026 | 14:54:09 | MB-L3-01Mainboard Lantai 3 | L3-LUX-01 | Illuminance / LUX 1 | 60.60 | lux |
Menampilkan maksimal 100 data per halaman